GW6605 Weather Reports


time (UTC)temp
F
wind
direction
speed
knots
gust
knots
rain 1hr
in
rain 24hr
in
rain mn
in
humidity
%
barometer
mb
20260507085506 43 20 0.9 3.5 0.00 0.87 0.00 92 1008.5
20260507085008 42 300 0.0 2.6 0.00 0.87 0.00 92 1008.8
20260507084528 42 25 0.9 2.6 0.00 0.87 0.00 92 1008.7
20260507084007 42 340 0.0 1.7 0.00 0.87 0.00 92 1008.5
20260507083504 42 53 0.0 2.6 0.00 0.87 0.00 92 1008.5
20260507083012 42 69 0.0 2.6 0.00 0.87 0.00 92 1008.3
20260507082506 42 359 0.0 1.7 0.00 0.87 0.00 91 1008.4
20260507082006 42 359 0.0 1.7 0.00 0.87 0.00 91 1008.3
20260507081518 43 359 0.0 1.7 0.00 0.87 0.00 91 1008.3
20260507081006 43 359 0.0 1.7 0.00 0.87 0.00 91 1008.3
20260507080508 43 236 0.9 1.7 0.00 0.87 0.00 91 1008.3
20260507080023 43 100 0.0 1.7 0.00 0.87 0.00 91 1008.3
20260507075512 43 207 0.9 1.7 0.00 0.87 0.00 91 1008.2
20260507075011 43 205 0.9 1.7 0.00 0.87 0.00 92 1008.3
20260507074524 43 276 0.0 1.7 0.00 0.87 0.00 92 1008.2
20260507074007 43 295 0.0 2.6 0.00 0.87 0.00 92 1008.2
20260507073511 43 221 0.0 2.6 0.00 0.87 0.00 92 1008.4
20260507073028 43 271 0.0 1.7 0.00 0.87 0.00 92 1008.4
20260507072505 43 181 0.0 1.7 0.00 0.87 0.00 91 1008.4
20260507072004 43 167 0.0 1.7 0.00 0.87 0.00 91 1008.3
20260507071512 43 217 0.0 1.7 0.00 0.87 0.00 91 1008.2
20260507071006 43 229 0.0 1.7 0.00 0.87 0.00 91 1008.1
20260507070507 44 253 0.0 1.7 0.00 0.87 0.00 91 1008.0
20260507070027 44 266 0.0 1.7 0.00 0.87 0.00 91 1008.0
20260507065507 44 266 0.0 1.7 0.00 0.87 0.00 91 1007.8
20260507065007 44 266 0.0 1.7 0.00 0.87 0.00 91 1008.0
20260507064524 44 266 0.0 1.7 0.00 0.87 0.00 91 1007.9
20260507064008 44 266 0.0 1.7 0.00 0.87 0.00 90 1007.9
20260507063511 44 266 0.0 1.7 0.00 0.87 0.00 90 1007.8
20260507063026 44 1 0.0 1.7 0.00 0.87 0.00 89 1007.4
20260507062510 44 1 0.0 2.6 0.00 0.87 0.00 89 1007.4
20260507062012 44 276 0.0 2.6 0.00 0.87 0.00 88 1007.8
20260507061511 44 271 0.9 2.6 0.00 0.87 0.00 88 1008.0
20260507061005 44 269 0.9 2.6 0.00 0.87 0.00 89 1008.3
20260507060506 44 338 0.0 1.7 0.00 0.87 0.00 90 1008.2
20260507060017 44 338 0.0 1.7 0.00 0.87 0.00 90 1007.9
20260507055506 44 338 0.0 1.7 0.00 0.87 0.00 90 1008.1
20260507055006 44 333 0.0 1.7 0.00 0.87 0.00 90 1008.1
20260507054524 44 324 0.0 1.7 0.00 0.87 0.00 90 1008.3
20260507054011 44 48 0.0 1.7 0.00 0.87 0.00 89 1008.0
20260507053509 44 44 0.9 1.7 0.00 0.87 0.00 89 1008.4
20260507053025 44 299 0.0 1.7 0.00 0.87 0.00 90 1008.6
20260507052503 44 295 0.9 1.7 0.00 0.87 0.00 89 1008.8
20260507052002 44 304 0.0 1.7 0.00 0.87 0.00 90 1008.9
20260507051511 44 304 0.0 1.7 0.00 0.87 0.00 90 1008.7
20260507051005 44 295 0.9 2.6 0.00 0.87 0.00 89 1008.7
20260507050504 44 295 0.9 2.6 0.00 0.87 0.00 89 1008.5
20260507050012 44 359 0.0 1.7 0.00 0.87 0.00 89 1008.4
20260507045506 45 359 0.0 2.6 0.00 0.87 0.00 89 1008.3
20260507045004 45 20 0.0 2.6 0.00 0.87 0.00 89 1008.3
20260507044517 45 322 0.9 2.6 0.00 0.87 0.00 89 1008.2
20260507044008 45 313 0.0 2.6 0.00 0.87 0.00 90 1008.2
20260507043507 45 304 0.9 2.6 0.00 0.87 0.00 89 1008.2
20260507043025 45 266 0.9 2.6 0.00 0.87 0.00 89 1008.1
20260507042508 46 314 1.7 1.7 0.00 0.87 0.00 88 1008.0
20260507042012 46 322 0.9 2.6 0.00 0.87 0.00 88 1007.9
20260507041524 46 298 0.9 2.6 0.00 0.87 0.00 88 1007.9
20260507041004 46 91 0.9 2.6 0.00 0.87 0.00 87 1008.2
20260507040503 46 330 0.0 1.7 0.00 0.87 0.00 89 1008.3
20260507040012 46 1 0.0 2.6 0.00 0.87 0.00 89 1008.3
20260507035503 46 330 0.9 2.6 0.00 0.87 0.87 89 1008.2
20260507035006 46 1 0.0 1.7 0.00 0.87 0.87 89 1008.3
20260507034517 46 67 0.0 1.7 0.00 0.87 0.87 89 1008.3
20260507034007 46 316 0.0 1.7 0.00 0.87 0.87 88 1008.3
20260507033510 46 315 0.0 1.7 0.00 0.87 0.87 89 1008.3
20260507033023 46 328 0.0 1.7 0.00 0.87 0.87 89 1008.2
20260507032508 46 301 0.9 1.7 0.00 0.87 0.87 90 1008.3
20260507032011 46 84 0.0 1.7 0.01 0.87 0.87 90 1008.2
20260507031525 46 87 0.0 1.7 0.01 0.87 0.87 90 1008.4
20260507031010 46 93 0.0 1.7 0.01 0.87 0.87 90 1008.3
20260507030509 47 21 0.0 1.7 0.01 0.87 0.87 90 1008.3
20260507030019 47 8 0.0 1.7 0.01 0.87 0.87 89 1008.4
20260507025507 47 349 0.0 1.7 0.01 0.87 0.87 89 1008.5
20260507025004 47 55 0.0 1.7 0.01 0.87 0.87 89 1008.4
20260507024517 47 23 0.0 1.7 0.01 0.87 0.87 90 1008.4
20260507024009 47 11 0.0 1.7 0.01 0.87 0.87 89 1008.5
20260507023506 47 304 0.0 1.7 0.01 0.87 0.87 88 1008.5
20260507023019 47 37 0.9 1.7 0.01 0.87 0.87 88 1008.5
20260507022506 47 338 0.0 1.7 0.01 0.87 0.87 88 1008.7
20260507022008 48 51 0.0 1.7 0.00 0.86 0.86 88 1008.6
20260507021525 48 359 0.0 2.6 0.00 0.86 0.86 87 1008.6
20260507021009 48 359 0.0 2.6 0.00 0.86 0.86 87 1008.5
20260507020512 48 44 0.0 1.7 0.00 0.86 0.86 86 1008.5
20260507020030 48 68 0.9 1.7 0.00 0.86 0.86 87 1008.5
20260507015507 48 13 0.0 1.7 0.00 0.86 0.86 87 1008.4
20260507015009 48 25 0.0 2.6 0.00 0.86 0.86 87 1008.3
20260507014519 48 20 0.0 2.6 0.00 0.86 0.86 86 1008.2
20260507014005 48 15 0.9 2.6 0.00 0.86 0.86 86 1008.2
20260507013505 48 1 0.9 3.5 0.00 0.86 0.86 86 1008.0
20260507013039 48 340 1.7 6.1 0.00 0.86 0.86 84 1008.2
20260507012507 49 294 0.9 6.1 0.00 0.86 0.86 86 1008.1
20260507012006 49 70 1.7 4.3 0.00 0.86 0.86 85 1008.0
20260507011522 49 352 0.9 2.6 0.00 0.86 0.86 86 1007.9
20260507011008 49 29 0.9 3.5 0.01 0.86 0.86 87 1007.9
20260507010508 49 297 0.9 3.5 0.01 0.86 0.86 87 1007.6
20260507010032 49 29 0.9 6.1 0.01 0.86 0.86 87 1007.5
20260507005510 49 309 0.9 6.1 0.01 0.86 0.86 87 1007.5
20260507005006 50 317 0.9 4.3 0.01 0.86 0.86 87 1007.4
20260507004526 50 307 0.9 4.3 0.01 0.86 0.86 87 1007.5
20260507004011 50 302 0.9 4.3 0.01 0.86 0.86 89 1007.3
20260507003504 51 281 0.9 1.7 0.01 0.86 0.86 89 1007.2
20260507003017 51 293 0.9 1.7 0.01 0.86 0.86 90 1007.0
20260507002510 51 256 0.9 3.5 0.01 0.86 0.86 90 1007.0
20260507002006 51 307 0.9 3.5 0.01 0.86 0.86 89 1006.8
20260507001522 52 339 0.0 2.6 0.01 0.86 0.86 91 1006.8
20260507001007 52 319 0.9 2.6 0.00 0.85 0.85 90 1006.5
20260507000505 52 359 0.9 2.6 0.00 0.85 0.85 90 1006.3
20260507000026 52 359 0.9 2.6 0.00 0.85 0.85 90 1006.1
20260506235507 52 274 0.0 1.7 0.00 0.85 0.85 91 1006.1
20260506235009 52 311 0.0 1.7 0.00 0.85 0.85 91 1005.9
20260506234524 52 60 0.0 1.7 0.00 0.85 0.85 90 1005.7
20260506234011 53 58 0.0 1.7 0.00 0.85 0.85 90 1005.8
20260506233510 53 63 0.0 1.7 0.00 0.85 0.85 90 1005.7
20260506233013 53 63 0.0 2.6 0.03 0.85 0.85 90 1005.6
20260506232504 53 72 0.9 2.6 0.04 0.85 0.85 89 1005.5
20260506232009 53 286 0.0 3.5 0.04 0.85 0.85 90 1005.5
20260506231520 53 82 0.9 3.5 0.04 0.85 0.85 89 1005.4
20260506231006 53 360 1.7 3.5 0.04 0.85 0.85 88 1005.4
20260506230505 54 350 0.9 5.2 0.04 0.85 0.85 87 1005.2
20260506230006 55 44 2.6 5.2 0.04 0.85 0.85 88 1005.0
20260506225503 56 70 1.7 4.3 0.04 0.85 0.85 89 1004.8
20260506225004 57 44 1.7 4.3 0.04 0.85 0.85 90 1004.5
20260506224507 58 276 1.7 3.5 0.04 0.85 0.85 90 1004.6
20260506224004 58 48 0.9 3.5 0.04 0.85 0.85 90 1004.3
20260506223504 59 53 0.9 3.5 0.04 0.85 0.85 90 1004.3
20260506223009 60 82 0.9 1.7 0.01 0.82 0.82 93 1004.3
20260506222505 60 248 0.0 1.7 0.01 0.81 0.81 93 1004.1
20260506222005 60 248 0.0 0.9 0.02 0.81 0.81 93 1004.0
20260506221516 60 248 0.0 1.7 0.04 0.81 0.81 92 1004.1
20260506221007 60 248 0.0 1.7 0.07 0.82 0.81 92 1004.1
20260506220509 60 203 0.0 1.7 0.07 0.84 0.81 93 1004.0
20260506220019 60 211 0.0 0.0 0.07 0.84 0.81 93 1004.0
20260506215504 60 210 0.0 0.0 0.07 0.84 0.81 93 1004.0
20260506215002 60 210 0.0 1.7 0.07 0.84 0.81 92 1004.0
20260506214508 60 211 0.0 1.7 0.07 0.84 0.81 92 1003.9
20260506214003 60 254 0.0 1.7 0.08 0.84 0.81 92 1004.0
20260506213503 60 255 0.0 1.7 0.08 0.84 0.81 92 1003.9
20260506213009 60 255 0.0 1.7 0.08 0.84 0.81 92 1004.0
20260506212505 60 31 0.0 1.7 0.07 0.83 0.80 92 1004.0
20260506212005 60 48 0.9 1.7 0.06 0.82 0.79 93 1004.0
20260506211514 60 119 0.0 1.7 0.05 0.80 0.77 92 1003.9
20260506211003 60 346 0.0 2.6 0.02 0.77 0.74 92 1004.0
20260506210504 60 259 0.9 2.6 0.03 0.77 0.74 92 1003.9
20260506210021 61 263 0.9 3.5 0.03 0.77 0.74 92 1003.7
20260506205509 61 359 1.7 3.5 0.03 0.77 0.74 92 1003.7
20260506205010 61 260 0.9 2.6 0.03 0.77 0.74 92 1003.8
20260506204527 61 250 0.0 2.6 0.04 0.77 0.74 93 1003.9
20260506204003 61 248 0.9 2.6 0.03 0.76 0.73 93 1003.8
20260506203503 61 250 1.7 2.6 0.04 0.76 0.73 93 1003.9
20260506203007 61 248 0.9 2.6 0.04 0.76 0.73 93 1003.9
20260506202504 61 215 0.0 1.7 0.04 0.76 0.73 93 1003.9
20260506202003 60 165 0.0 1.7 0.06 0.76 0.73 93 1004.0
20260506201512 60 257 0.9 1.7 0.08 0.75 0.72 93 1004.0
20260506201006 60 113 0.0 1.7 0.14 0.75 0.72 93 1004.0
20260506200505 60 252 0.0 1.7 0.17 0.74 0.71 93 1004.1
20260506200015 60 244 0.0 1.7 0.25 0.74 0.71 93 1004.1
20260506195506 60 270 0.0 1.7 0.28 0.74 0.71 93 1004.2
20260506195008 60 283 0.9 1.7 0.29 0.74 0.71 92 1004.3
20260506194518 60 252 0.0 1.7 0.29 0.73 0.70 93 1004.4
20260506194012 60 205 0.9 1.7 0.30 0.73 0.70 92 1004.4
20260506193509 60 236 0.0 1.7 0.29 0.72 0.69 93 1004.5
20260506193003 60 51 0.0 1.7 0.30 0.72 0.69 93 1004.6
20260506192502 60 247 0.0 1.7 0.31 0.72 0.69 93 1004.6
20260506192007 60 76 0.0 1.7 0.30 0.70 0.67 92 1004.6
20260506191512 60 235 0.0 1.7 0.28 0.67 0.64 92 1004.8
20260506191006 60 235 0.0 1.7 0.23 0.61 0.58 92 1004.9
20260506190504 60 237 0.0 1.7 0.20 0.57 0.54 92 1004.9
20260506190016 60 252 0.0 1.7 0.13 0.49 0.46 91 1005.1
20260506185504 60 201 0.0 2.6 0.10 0.46 0.43 91 1005.1
20260506185003 60 309 0.0 2.6 0.10 0.45 0.42 92 1005.1
20260506184537 60 231 0.9 3.5 0.09 0.44 0.41 92 1005.2
20260506184013 60 193 0.9 3.5 0.09 0.43 0.40 92 1005.2
20260506183507 60 234 0.9 2.6 0.11 0.43 0.40 92 1005.2
20260506183033 60 257 0.0 2.6 0.11 0.42 0.39 92 1005.2
20260506182508 60 236 0.9 2.6 0.11 0.41 0.38 92 1005.3
20260506182012 60 211 0.9 2.6 0.13 0.40 0.37 92 1005.3
20260506181513 60 203 0.9 3.5 0.13 0.39 0.36 92 1005.4
20260506181006 60 169 0.0 3.5 0.14 0.38 0.35 92 1005.5
20260506180504 59 281 0.9 3.5 0.15 0.37 0.34 92 1005.4
20260506180016 59 190 0.9 2.6 0.15 0.36 0.33 92 1005.5
20260506175505 59 262 1.7 2.6 0.17 0.36 0.33 92 1005.5
20260506175003 59 264 1.7 2.6 0.17 0.35 0.32 92 1005.6
20260506174523 59 113 0.9 2.6 0.19 0.35 0.32 92 1005.7
20260506174007 59 169 0.9 3.5 0.19 0.34 0.31 92 1005.8
20260506173507 59 248 0.9 3.5 0.19 0.32 0.29 92 1005.9
20260506173020 59 352 0.0 2.6 0.19 0.31 0.28 92 1005.9
20260506172508 59 196 0.9 2.6 0.19 0.30 0.27 91 1006.1
20260506172009 60 229 0.9 2.6 0.17 0.27 0.24 91 1006.1
20260506171523 60 275 0.9 3.5 0.16 0.26 0.23 91 1006.2
20260506171008 60 283 0.9 3.5 0.15 0.24 0.21 91 1006.2
20260506170505 60 269 0.9 2.6 0.14 0.22 0.19 91 1006.2
20260506170011 60 237 0.9 3.5 0.13 0.21 0.18 91 1006.2
20260506165504 60 231 1.7 3.5 0.11 0.19 0.16 90 1006.3
20260506165004 60 259 0.9 3.5 0.11 0.18 0.15 91 1006.3
20260506164516 60 232 0.9 3.5 0.09 0.16 0.13 90 1006.2
20260506164008 60 278 0.9 3.5 0.08 0.15 0.12 90 1006.2
20260506163504 60 260 1.7 3.5 0.07 0.13 0.10 89 1006.3
20260506163018 60 271 0.0 1.7 0.06 0.12 0.09 89 1006.2
20260506162508 60 281 0.0 1.7 0.05 0.11 0.08 89 1006.5
20260506162009 60 198 0.0 1.7 0.05 0.10 0.07 89 1006.5
20260506161524 60 245 0.0 1.7 0.05 0.10 0.07 89 1006.6
20260506161009 60 95 0.0 1.7 0.05 0.09 0.06 88 1006.7
20260506160511 60 125 0.0 1.7 0.05 0.08 0.05 89 1006.8
20260506160026 60 259 0.0 1.7 0.05 0.08 0.05 88 1006.8
20260506155504 60 227 0.0 1.7 0.05 0.08 0.05 88 1006.9
20260506155003 60 142 0.0 1.7 0.04 0.07 0.04 88 1006.9
20260506154512 60 1 0.0 1.7 0.04 0.07 0.04 88 1007.0
20260506154005 60 359 0.0 1.7 0.04 0.07 0.04 87 1007.1
20260506153509 60 347 0.0 1.7 0.03 0.06 0.03 86 1007.1
20260506153021 60 353 0.0 1.7 0.03 0.06 0.03 85 1007.4
20260506152508 61 358 0.0 1.7 0.03 0.06 0.03 85 1007.5
20260506152008 61 327 0.0 1.7 0.02 0.05 0.02 85 1007.5
20260506151524 61 356 0.0 1.7 0.02 0.05 0.02 84 1007.7
20260506151008 61 343 0.0 1.7 0.01 0.04 0.01 83 1007.9
20260506150507 61 360 0.0 1.7 0.00 0.03 0.00 81 1007.9
20260506150023 61 1 0.0 1.7 0.00 0.03 0.00 80 1007.9
20260506145510 61 73 0.0 1.7 0.00 0.03 0.00 79 1008.0
20260506145010 61 124 0.9 1.7 0.00 0.03 0.00 79 1007.9
20260506144527 61 287 0.0 1.7 0.00 0.03 0.00 79 1008.1
20260506144005 61 251 0.0 2.6 0.00 0.03 0.00 78 1008.1
20260506143504 61 288 0.9 2.6 0.00 0.03 0.00 78 1007.9
20260506143003 61 279 0.9 2.6 0.00 0.03 0.00 78 1007.8
20260506142505 61 188 0.0 2.6 0.00 0.03 0.00 78 1007.7
20260506142003 61 257 0.9 2.6 0.00 0.03 0.00 78 1007.7
20260506141502 61 168 0.9 2.6 0.00 0.03 0.00 78 1007.7
20260506141005 61 134 0.9 2.6 0.00 0.03 0.00 78 1007.8
20260506140506 61 86 0.9 2.6 0.00 0.03 0.00 78 1007.7
20260506140005 61 212 0.9 2.6 0.00 0.03 0.00 79 1007.7
20260506135502 61 110 0.0 1.7 0.00 0.03 0.00 79 1007.6
20260506135005 61 75 0.9 2.6 0.00 0.03 0.00 79 1007.6
20260506134504 61 217 0.9 4.3 0.00 0.03 0.00 79 1007.7
20260506134000 60 64 0.9 3.5 0.00 0.03 0.00 79 1007.7
20260506133003 60 236 0.9 3.5 0.00 0.03 0.00 81 1007.6
20260506132506 60 53 0.9 2.6 0.00 0.03 0.00 82 1007.5
20260506132005 59 68 0.0 1.7 0.00 0.03 0.00 82 1007.6
20260506131503 59 10 0.0 1.7 0.00 0.03 0.00 83 1007.7
20260506131003 59 296 0.9 1.7 0.00 0.03 0.00 82 1007.9
20260506130505 59 73 0.0 1.7 0.00 0.03 0.00 83 1007.9
20260506130004 59 79 0.0 1.7 0.00 0.03 0.00 83 1008.1
20260506125502 58 24 0.9 1.7 0.00 0.03 0.00 84 1008.2
20260506125002 58 70 0.0 1.7 0.00 0.03 0.00 84 1008.3
20260506124502 58 205 0.9 1.7 0.00 0.03 0.00 85 1008.3
20260506124004 58 324 0.0 1.7 0.00 0.03 0.00 86 1008.3
20260506122004 56 257 0.9 2.6 0.00 0.03 0.00 88 1008.5
20260506121504 56 65 0.0 2.6 0.00 0.03 0.00 88 1007.6
20260506121003 56 57 0.9 2.6 0.00 0.03 0.00 88 1007.9
20260506120503 56 290 0.0 1.7 0.00 0.03 0.00 89 1008.1
20260506120010 55 259 0.0 1.7 0.00 0.03 0.00 90 1007.9
20260506115503 55 210 0.0 1.7 0.00 0.03 0.00 91 1008.1
20260506115004 55 116 0.0 1.7 0.00 0.03 0.00 91 1008.0
20260506114511 54 274 0.0 1.7 0.00 0.03 0.00 92 1008.2
20260506114003 54 233 0.0 1.7 0.00 0.03 0.00 93 1008.3
20260506113503 54 233 0.0 1.7 0.00 0.03 0.00 93 1008.2
20260506113010 53 236 0.0 1.7 0.00 0.03 0.00 93 1008.3
20260506111504 52 246 0.0 1.7 0.00 0.03 0.00 94 1008.1
20260506111004 52 96 0.0 1.7 0.00 0.03 0.00 94 1008.1
20260506110505 51 96 0.0 1.7 0.00 0.03 0.00 94 1008.2
20260506110006 51 96 0.0 1.7 0.00 0.03 0.00 93 1008.2
20260506105503 51 96 0.0 0.9 0.00 0.03 0.00 93 1008.4
20260506105002 51 106 0.0 1.7 0.00 0.03 0.00 93 1008.4
20260506104503 51 187 0.0 1.7 0.00 0.03 0.00 93 1008.4
20260506104003 51 230 0.0 1.7 0.00 0.03 0.00 93 1008.3
20260506103503 51 230 0.0 1.7 0.00 0.03 0.00 93 1008.3
20260506103009 51 207 0.0 1.7 0.00 0.03 0.00 93 1008.3
20260506102504 51 206 0.0 1.7 0.00 0.03 0.00 93 1008.2
20260506102004 51 184 0.0 1.7 0.00 0.03 0.00 93 1008.3
20260506101508 51 155 0.0 1.7 0.00 0.03 0.00 93 1008.2
20260506101003 51 155 0.0 1.7 0.00 0.03 0.00 93 1008.3
20260506100506 51 158 0.0 1.7 0.00 0.03 0.00 93 1008.3
20260506100009 51 214 0.0 1.7 0.00 0.03 0.00 92 1008.3
20260506095503 51 184 0.0 1.7 0.00 0.03 0.00 92 1008.2
20260506095003 51 186 0.0 1.7 0.00 0.03 0.00 92 1008.2
20260506094507 51 241 0.0 0.0 0.00 0.03 0.00 93 1008.4
20260506094004 51 241 0.0 1.7 0.00 0.03 0.00 93 1008.3
20260506093505 51 241 0.0 1.7 0.00 0.03 0.00 93 1008.1
20260506093004 51 224 0.0 0.9 0.00 0.03 0.00 92 1008.2
20260506092504 52 226 0.0 0.9 0.00 0.03 0.00 92 1008.2
20260506092004 52 226 0.0 1.7 0.00 0.03 0.00 92 1008.3
20260506091506 52 226 0.0 1.7 0.00 0.03 0.00 92 1008.2
20260506091004 52 226 0.0 1.7 0.00 0.03 0.00 92 1008.2
20260506090504 52 226 0.0 1.7 0.00 0.03 0.00 92 1008.2
20260506090008 52 226 0.0 1.7 0.00 0.03 0.00 92 1008.3